Wind_Speed
29 29 29 30 30 30 30 30 29 28 28 28 29 28 28 28 28 28 28 27 28 29 29 29 29 29 29 29 29 29 28 28 29 28 28 28 29 29
28 29 29 30 30 30 30 30 29 28 28 28 29 29 29 29 28 28 28 28 28 29 29 29 29 29 29 29 29 29 29 28 28 28 28 28 29 28
27 28 28 29 29 30 30 30 29 29 28 28 28 29 29 29 28 29 29 29 29 29 30 30 30 29 30 29 29 28 28 27 27 28 28 29 29 29
27 27 27 27 28 28 29 28 28 28 28 28 29 29 29 29 30 29 29 30 30 30 31 31 31 30 30 30 29 29 28 28 28 27 28 28 28 29
25 25 25 26 27 27 28 28 28 28 28 29 29 29 29 30 30 30 30 30 30 31 31 31 31 30 30 30 29 29 29 29 29 29 28 28 28 28
24 24 25 26 26 27 28 28 28 28 29 29 29 29 29 29 30 30 30 30 30 30 31 31 31 30 30 30 29 29 29 29 29 29 28 28 28 29
25 25 25 25 26 27 27 27 27 28 29 29 29 29 29 29 30 30 30 30 29 29 29 30 31 31 30 30 29 29 29 29 29 28 28 28 28 28
25 25 25 26 27 27 27 27 28 29 29 29 29 29 29 29 29 30 29 29 29 29 29 29 29 30 30 30 30 30 30 29 29 29 29 29 29 29
25 25 25 25 26 26 27 27 28 28 28 28 28 28 28 28 29 29 29 29 28 28 29 28 29 29 29 29 29 29 30 30 30 30 29 29 29 29
25 25 25 25 26 26 25 25 26 26 27 27 27 27 28 28 29 29 29 30 29 29 29 29 29 29 29 29 29 29 30 31 31 30 29 29 29 30
25 25 25 25 25 26 26 25 25 25 26 26 27 27 27 27 28 28 29 29 29 29 29 29 29 29 28 28 30 30 30 30 30 29 29 29 30 30
25 26 26 26 26 26 25 25 25 24 24 24 24 25 26 26 26 27 28 28 28 28 28 29 29 29 28 28 29 29 29 29 29 28 29 29 30 31
25 25 25 25 25 25 24 25 25 25 24 25 25 25 26 26 26 26 26 26 26 26 26 28 28 28 28 28 27 27 28 28 28 28 28 28 29 29
24 25 24 24 25 25 25 25 25 26 26 25 25 25 25 25 25 24 24 24 25 25 25 26 26 27 27 26 26 26 27 27 27 27 27 27 28 28
25 25 24 23 24 24 25 25 26 26 26 26 26 25 25 24 23 23 24 24 23 24 24 25 25 25 25 25 25 25 25 26 27 27 27 28 28 28
24 23 23 23 24 24 24 24 24 25 25 26 25 25 25 24 23 23 23 23 23 23 23 23 23 23 24 25 25 24 25 26 27 27 27 27 27 27
23 23 23 23 23 24 24 24 25 25 25 24 24 24 24 23 23 23 22 22 22 22 21 21 22 22 23 24 25 25 25 25 25 26 26 26 26 27
24 24 23 23 23 24 24 24 24 24 24 24 23 23 23 23 23 23 23 22 22 22 22 21 22 23 24 24 25 25 25 25 25 25 26 26 25 25
24 24 24 24 24 24 24 24 24 25 25 25 24 23 22 22 22 22 23 23 23 23 22 22 23 23 24 24 24 24 24 25 25 25 26 26 25 25
25 24 24 24 25 25 24 24 24 24 24 24 24 23 22 22 21 21 22 22 23 23 23 23 23 23 22 23 24 24 25 26 25 25 25 25 25 25
24 24 24 24 24 24 24 24 24 24 24 23 23 22 22 22 22 22 22 22 22 23 22 23 23 23 23 23 24 24 25 26 26 25 25 25 25 25
23 23 23 23 23 23 23 23 22 22 22 23 23 23 22 22 22 22 22 22 22 22 21 21 22 23 23 24 24 24 24 24 24 25 25 25 25 25
22 22 22 23 22 22 21 21 21 21 21 21 22 22 22 22 22 22 22 22 22 22 21 21 21 21 21 22 23 24 24 23 24 24 25 25 25 25
Wind_Direction
273 272 271 269 269 269 269 270 270 270 271 271 271 272 272 271 270 268 267 265 264 262 261 260 258 258 258 257 258 259 259 259 258 258 260 258 257 257
274 272 273 272 269 269 270 270 270 271 272 271 272 272 271 271 270 268 266 265 265 264 262 260 259 258 258 258 258 257 258 259 259 259 262 260 257 257
276 273 272 271 271 270 269 270 271 271 271 270 271 273 272 271 270 268 265 265 266 265 262 259 259 259 259 259 258 256 257 260 260 260 261 259 257 257
279 275 272 270 271 270 269 269 270 270 270 270 271 272 272 271 270 269 267 266 265 264 262 260 258 258 258 257 256 256 256 257 259 260 261 261 258 257
280 277 272 270 271 270 269 270 269 269 270 270 272 271 271 270 268 268 267 267 266 265 262 260 258 258 258 256 255 255 255 256 258 260 261 261 259 257
280 276 274 272 272 272 271 270 270 271 271 271 273 273 272 271 269 268 268 268 267 265 262 259 258 258 258 256 255 254 255 255 258 260 261 261 261 258
281 278 277 274 274 273 272 271 272 273 273 273 273 273 275 273 270 269 267 266 265 264 261 259 257 257 258 257 256 255 254 255 256 260 262 263 261 259
280 279 277 276 275 273 273 272 272 272 273 274 274 274 275 274 271 269 268 266 265 263 261 259 259 256 255 255 256 255 254 255 256 259 261 262 260 260
280 279 278 278 277 275 274 273 273 273 275 275 275 275 275 273 271 269 267 265 265 263 261 260 259 257 255 253 254 254 254 255 256 258 261 262 260 260
279 278 278 277 275 275 275 274 274 275 275 274 275 275 275 275 271 269 266 265 264 264 262 260 260 258 255 254 253 254 254 256 257 259 260 261 260 259
281 280 279 277 275 274 273 273 274 275 276 274 274 274 275 275 274 271 268 266 264 263 262 261 259 258 255 254 254 255 255 256 257 258 259 260 260 260
282 281 280 278 275 272 272 273 273 274 275 274 275 275 276 276 275 272 268 266 264 262 262 260 258 257 255 255 256 255 254 255 256 257 259 261 259 262
284 283 281 279 277 275 274 274 273 273 274 274 276 276 275 275 274 272 269 266 263 262 262 260 257 255 254 254 254 254 254 253 255 256 258 260 260 261
286 286 284 280 277 276 275 275 273 274 276 275 277 278 277 275 272 270 268 266 264 263 261 259 256 254 254 253 253 253 254 255 256 257 258 260 262 263
285 286 286 283 280 278 277 277 274 274 276 275 277 277 276 275 273 271 268 265 264 262 262 260 257 255 254 253 252 254 255 255 257 259 259 261 262 260
285 285 285 284 282 280 278 278 276 276 276 276 276 274 274 274 272 270 267 263 260 259 261 259 257 257 255 255 254 254 254 255 257 260 260 259 259 258
285 286 286 285 284 282 280 277 276 275 275 276 276 274 273 270 269 268 265 264 262 260 260 259 256 256 255 255 255 254 254 255 256 257 257 258 258 257
287 286 287 287 286 284 282 279 277 277 275 275 275 274 273 269 268 265 264 263 263 261 260 260 259 258 256 256 255 256 256 254 255 256 257 259 259 259
289 287 287 287 287 286 284 281 279 277 275 273 273 273 273 271 268 265 264 262 262 262 262 261 260 259 258 258 257 258 258 255 254 255 256 257 258 259
290 289 289 289 289 288 284 280 278 275 272 271 270 271 270 269 268 266 265 264 262 262 262 263 261 259 259 259 259 259 259 256 254 254 254 255 257 259
290 290 290 291 290 287 284 281 277 274 271 269 268 268 268 268 268 266 265 266 264 264 264 262 260 259 260 260 260 258 257 255 253 252 254 256 259 259
293 292 292 292 290 288 285 282 279 275 271 269 267 267 267 267 267 264 264 265 264 264 265 264 263 263 262 262 261 260 259 256 253 254 255 257 260 260
294 293 293 293 290 287 285 283 280 277 274 271 269 267 266 265 264 264 265 264 263 262 263 264 265 266 265 264 263 262 261 258 258 258 257 257 259 258
Height
5774 5774 5775 5775 5775 5775 5775 5776 5776 5777 5778 5778 5778 5779 5779 5780 5781 5781 5782 5783 5784 5785 5786 5788 5789 5791 5792 5794 5796 5798 5800 5802 5803 5805 5806 5808 5810 5812
5766 5766 5766 5766 5766 5766 5767 5767 5768 5769 5770 5770 5770 5771 5771 5772 5773 5773 5774 5774 5775 5776 5777 5779 5780 5782 5784 5785 5788 5790 5792 5793 5795 5797 5798 5800 5802 5804
5758 5758 5758 5758 5758 5758 5759 5759 5760 5760 5761 5762 5762 5762 5763 5763 5764 5764 5765 5766 5767 5768 5769 5770 5772 5773 5775 5776 5779 5781 5783 5785 5787 5789 5790 5792 5793 5796
5750 5750 5750 5750 5750 5750 5751 5751 5752 5752 5753 5754 5755 5754 5754 5755 5755 5755 5756 5757 5758 5758 5759 5761 5763 5764 5766 5768 5770 5772 5775 5777 5779 5780 5782 5783 5785 5787
5742 5742 5742 5742 5742 5742 5743 5743 5744 5744 5745 5745 5746 5746 5746 5745 5746 5747 5747 5748 5748 5749 5750 5751 5753 5755 5757 5759 5761 5764 5766 5769 5771 5772 5773 5774 5776 5778
5735 5735 5735 5735 5735 5735 5735 5735 5736 5736 5736 5736 5737 5737 5737 5736 5736 5737 5738 5738 5739 5740 5741 5742 5744 5746 5748 5751 5753 5755 5757 5760 5761 5763 5764 5766 5768 5770
5728 5727 5727 5727 5727 5727 5727 5727 5727 5728 5728 5728 5728 5728 5728 5727 5727 5728 5728 5729 5730 5731 5732 5733 5735 5737 5739 5742 5744 5746 5749 5751 5753 5754 5756 5758 5759 5761
5721 5720 5719 5719 5719 5719 5718 5719 5719 5719 5720 5719 5720 5720 5719 5718 5718 5718 5719 5720 5722 5723 5723 5725 5726 5728 5731 5733 5735 5738 5740 5742 5744 5746 5748 5750 5751 5753
5713 5712 5712 5711 5711 5711 5711 5711 5711 5711 5711 5711 5711 5711 5710 5710 5709 5709 5710 5711 5713 5713 5714 5716 5718 5719 5722 5724 5727 5729 5731 5733 5735 5738 5739 5741 5743 5745
5706 5705 5704 5704 5703 5703 5703 5703 5703 5703 5703 5702 5702 5702 5701 5701 5700 5701 5701 5702 5703 5704 5705 5707 5709 5711 5712 5715 5718 5720 5723 5725 5727 5729 5731 5732 5734 5736
5698 5697 5696 5696 5696 5695 5695 5695 5695 5695 5694 5694 5694 5693 5693 5692 5692 5691 5692 5693 5694 5695 5696 5698 5700 5702 5703 5706 5708 5711 5714 5716 5718 5720 5722 5723 5725 5727
5691 5689 5688 5688 5687 5687 5687 5687 5687 5687 5686 5685 5685 5685 5684 5683 5683 5682 5683 5684 5685 5686 5687 5689 5691 5692 5695 5697 5700 5702 5705 5707 5709 5711 5713 5714 5716 5717
5683 5682 5681 5680 5679 5679 5679 5679 5679 5678 5678 5677 5677 5676 5676 5675 5675 5674 5674 5675 5676 5677 5679 5680 5682 5683 5686 5689 5691 5693 5696 5698 5700 5702 5703 5705 5706 5708
5676 5674 5673 5672 5672 5671 5671 5671 5670 5670 5670 5669 5669 5668 5668 5667 5667 5666 5666 5666 5667 5668 5670 5671 5673 5675 5677 5680 5683 5685 5687 5689 5691 5693 5695 5696 5697 5698
5668 5667 5666 5665 5664 5663 5663 5662 5662 5662 5661 5661 5660 5660 5660 5659 5659 5659 5659 5659 5659 5660 5662 5663 5665 5666 5669 5672 5675 5677 5679 5681 5683 5684 5686 5687 5688 5689
5661 5660 5659 5657 5656 5656 5655 5654 5654 5653 5653 5652 5652 5651 5651 5651 5651 5651 5651 5652 5653 5654 5654 5655 5657 5659 5661 5664 5667 5669 5671 5673 5675 5676 5677 5678 5680 5681
5654 5653 5651 5650 5649 5648 5647 5646 5645 5645 5644 5644 5643 5643 5643 5643 5643 5644 5644 5645 5646 5647 5648 5649 5650 5652 5654 5656 5658 5660 5662 5664 5666 5667 5668 5670 5672 5673
5646 5645 5644 5643 5641 5640 5638 5637 5637 5636 5636 5636 5635 5635 5635 5635 5636 5637 5637 5638 5639 5640 5641 5642 5643 5645 5646 5648 5650 5652 5654 5656 5657 5659 5660 5662 5663 5665
5639 5638 5636 5635 5633 5631 5630 5629 5629 5628 5628 5628 5628 5627 5627 5628 5628 5629 5630 5630 5631 5633 5634 5635 5636 5637 5639 5640 5642 5644 5646 5647 5649 5651 5652 5654 5655 5657
5632 5630 5628 5627 5625 5623 5622 5621 5620 5620 5620 5620 5620 5620 5620 5620 5621 5622 5623 5623 5624 5625 5626 5628 5628 5630 5631 5633 5634 5636 5637 5638 5640 5642 5644 5645 5647 5648
5624 5622 5620 5619 5617 5615 5614 5613 5612 5612 5612 5612 5613 5613 5613 5614 5614 5615 5615 5616 5617 5618 5619 5620 5621 5622 5623 5625 5626 5627 5628 5630 5631 5633 5635 5637 5638 5640
5616 5614 5613 5611 5610 5608 5606 5605 5605 5604 5604 5605 5605 5606 5606 5607 5607 5608 5608 5609 5609 5610 5611 5612 5613 5614 5616 5617 5618 5619 5620 5622 5623 5625 5626 5629 5629 5631
5610 5608 5606 5604 5603 5601 5599 5598 5597 5597 5597 5597 5597 5598 5598 5599 5600 5600 5601 5601 5602 5603 5604 5605 5606 5607 5608 5609 5610 5611 5612 5613 5615 5616 5619 5620 5621 5622